Miscellaneous Local Product
Issued by NWS North Platte, NE

Home | Current Version | Previous Version | Text Only | Print | Product List | Glossary On
Versions: 1 2 3 4 5 6 7 8 9 10 11 12 13 14 15 16 17 18 19 20 21 22 23 24 25 26 27 28 29 30 31 32 33 34 35 36 37 38 39 40 41 42 43 44 45 46 47 48 49 50
000
AXUS43 KLBF 302010
MISLBF


WESTERN AND NORTH CENTRAL NEBRASKA HOURLY WEATHER ROUNDUP
NATIONAL WEATHER SERVICE NORTH PLATTE NE
300 PM CDT MON MAY 30 2016

NOTE: "FAIR" INDICATES FEW OR NO CLOUDS BELOW 12,000 FEET WITH NO
SIGNIFICANT WEATHER AND/OR OBSTRUCTIONS TO VISIBILITY.

NOTE: STATIONS NOT REPORTING VARIABLES SUCH AS SKY/WEATHER OR
PRESSURE ARE PROVIDED BY RAWS AND APRS NETWORKS AND ARE NOT UNDER
NATIONAL WEATHER SERVICE QUALITY CONTROL.

...OBSERVATIONS IN AND NEAR THE EASTERN PANHANDLE OF NEBRASKA...

CITY           SKY/WX    TMP DP  RH WIND       PRES   REMARKS
PINE RIDGE     MOSUNNY   82  44  26 W18G24    29.85F
CHADRON        MOSUNNY   81  44  27 W18G31    29.86F
ALLIANCE       MOSUNNY   77  47  34 W14       29.88F
SIDNEY         SUNNY     76  47  35 VRB5      29.92F
CRESCENT LAKE    N/A     82  44  26 W12         N/A
BIG SPRINGS      N/A     80  53  38 S9          N/A
$$

...OBSERVATIONS IN NORTHERN NEBRASKA AND FAR SOUTHERN SOUTH DAKOTA...

CITY           SKY/WX    TMP DP  RH WIND       PRES   REMARKS
WINNER         FAIR      82  55  39 S18G25    29.82F
VALENTINE      SUNNY     83  50  31 S21       29.83F
THEDFORD       SUNNY     83  51  32 S16G24    29.89F
AINSWORTH      SUNNY     80  52  37 S20G25    29.87F
O`NEILL        PTSUNNY   78  58  51 S14       29.89F
ORD            SUNNY     82  57  42 S14G20    29.88F
BROKEN BOW     SUNNY     81  58  45 S15G23    29.90F
BUTTE            N/A     78  57  48 SE15G23     N/A
CHAMBERS         N/A     87  60  39 SW5G12      N/A
EWING            N/A     81  60  48 S8G16       N/A
$$

...OBSERVATIONS IN SOUTHWEST NEBRASKA AND FAR NORTHEAST COLORADO...

CITY           SKY/WX    TMP DP  RH WIND       PRES   REMARKS
WRAY           FAIR      81  46  30 SE8       29.91F
HOLYOKE        FAIR      82  46  28 S3        29.91F
IMPERIAL       SUNNY     80  56  43 S14G28    29.89F
OGALLALA       SUNNY     79  50  35 S6        29.89F
NORTH PLATTE   SUNNY     79  57  46 S10G21    29.89F
MCCOOK         SUNNY     81  60  48 S16G25    29.89F
LEXINGTON      SUNNY     79  56  45 S14G21    29.90F
PAXTON           N/A     80  58  46 S12         N/A
STAPLETON        N/A     83  58  42 CALM        N/A
GOTHENBURG       N/A     78  53  41 S8          N/A
CALLAWAY         N/A     79  59  49 S20         N/A
$$

...OBSERVATIONS IN CENTRAL LINCOLN COUNTY AREA...

CITY           SKY/WX    TMP DP  RH WIND       PRES   REMARKS
N.P. AIRPORT   SUNNY     79  57  46 S10G21    29.89F
N.P. DOWNTOWN    N/A     82  57  42 S7G16       N/A
N.P. HILLCREST   N/A     80  57  44 S13G21      N/A
$$

...SOME OBSERVATIONS FROM AROUND THE REGION...

CITY           SKY/WX    TMP DP  RH WIND       PRES   REMARKS
DENVER         CLOUDY    75  36  24 S10       29.95F
LARAMIE        CLOUDY    62  35  36 W16       30.09F
CHEYENNE       CLOUDY    56  46  69 NE7       30.05F
SCOTTSBLUFF    CLOUDY    75  42  30 W15       29.92F
RAPID CITY     PTSUNNY   75  51  43 N30G39    29.83R
BISMARCK       CLOUDY    79  58  48 VRB3      29.82F
PIERRE         MOSUNNY   81  58  45 S16G25    29.77F
SIOUX FALLS    CLOUDY    79  60  52 S12       29.89F
OMAHA          PTSUNNY   88  60  38 S12       29.90F
GRAND ISLAND   SUNNY     82  59  45 S16       29.91F
KANSAS CITY    TSTM      68  62  81 S16G32    30.00R
WICHITA        MOSUNNY   82  60  47 S9        29.96F
OKLAHOMA CITY  PTSUNNY   80  65  59 VRB3      29.96F
DALLAS         PTSUNNY   82  63  52 S5        29.96F
AMARILLO       SUNNY     77  60  55 S13G21    30.01F
DODGE CITY     SUNNY     80  54  40 S14G23    29.95F
HAYS           SUNNY     82  55  39 S15G23    29.93F
GOODLAND       SUNNY     80  55  42 S22G33    29.91F
$$




USA.gov is the U.S. government's official web portal to all federal, state and local government web resources and services.